CZ-3C DEB, 39354

Orbit data source: Space-Track

CZ-3C DEB, 39354 is space debris in HEO originally from a launch on Sun, 31 Oct 2010 UTC launched from the Xichang Space Center, China (XSC). Debris objects in space refer to the collection of defunct objects orbiting the Earth. Examples of debris include non-operational satellites, rocket bodies, and fragments generated from explosions, collisions, or faulty payload assembly.

Loading next visibility...
Identifier
39354, 2010-057U
Orbit
HEO
Country
Flag of CNCN / PRC
Related business
Manufacturer
CALT
Mission
Spacecraft
Bus & Motor
Unknown
Mass
Unknown
Launch date (UTC)
2010-10-31 (16 years ago)
Launch vehicle
Unknown
Launch site
Xichang Space Center, China (XSC)
Object type
Payload
Rocket body
Debris
Shape & HBR
Unknown shape, 0.2 m
Radar Cross Section
Medium (>0.1 m² and <1 m²)

Expand to show TLE details & history
Last TLE update: 23 hours ago

TLE from 23 hours ago
0 CZ-3C DEB
1 39354U 10057U   26171.14273778  .00000006  00000-0  19453-2 0  9993
2 39354  20.4918  89.9634 7187672 169.3538 356.5560  2.22644538 98869
Epoch: 2026-06-20T03:25Z
TLE epoch observation values (Epoch: 2026-06-20T03:25:32.544Z)
Latitude
13.16277°
Longitude
-88.20587°
Altitude
971.378 km
Speed
9.612 km/s
True Right ascension
15h 26m 09s
True Declination
13° 05' 20"
Sunlit
Object was in full shadow at epoch
Visualization orbit readout
Latitude
Unknown
Longitude
Unknown
Altitude
Unknown
Speed
Unknown
Apparent Right ascension
Unknown
Apparent Declination
Unknown
Sunlit
N/A
Visualization observer readout
Local Sidereal Time
13:09:50
Azimuth
Unknown
Elevation
Unknown
Doppler factor
Unknown
Orbital elements
Apogee altitude
36,209.822 km
Perigee altitude
590.306 km
Semi-major axis
24,778.201 km
Eccentricity
0.71877
Inclination
20.4918°
RAAN
89.9634°
Arg. of periapsis
169.3538°
True anomaly
330.81983°
Mean anomaly
356.556°
Eccentric anomaly
347.97883°
Mean motion
0.55647 °/min
Orbital period
646.94 mins
BSTAR
0.0019453
Loading maneuver chart data...
Computing Atmospheric mass density...
Loading historical data...
Loading historical data...
Loading historical data...
Loading historical data...
Loading historical data...
Loading historical data...
Loading historical data...

Documentation

Showing up to 5 results
|